Вернуться в каталог

NOAA 16 DEB

АктивенPO
NORAD 41221·DEBRIS·🇺🇸 United States

Запущен Sep 21, 2000 с Vandenberg Space Force Base

Loading…

Ближайшие Пролёты (ближайшие 24 часа)

TLE

СвежийSource: Space-Track

Эпоха: Sep 14, 2026, 11:35 UTC

1 41221U 00055EA  26257.48320082  .00003365  00000-0  80517-3 0  9990
2 41221  98.9728 148.2387 0039151 150.5021 209.8394 14.53838835562322

Отслеживайте NOAA 16 DEB в реальном времени с AllMySat

Download on the App Store